Regional Weather Roundup
Issued by NWS

Home | Current Version | Previous Version | Text Only | Print | Product List | Glossary On
Versions: 1 2 3 4 5 6 7 8 9 10 11 12 13 14 15 16 17 18 19 20 21 22 23 24 25 26 27
000
ASUS45 KBOU 181507
RWRCO

WEATHER ROUNDUP FOR COLORADO
NATIONAL WEATHER SERVICE DENVER/BOULDER CO
900 AM MDT WED OCT 18 2017

NOTE: "FAIR" INDICATES FEW OR NO CLOUDS BELOW 12000 FEET WITH NO
SIGNIFICANT WEATHER AND/OR OBSTRUCTIONS TO VISIBILITY.

COZ001>005-013-030-031-181600-
...NORTHWEST COLORADO...

CITY           SKY/WX    TMP DP  RH WIND       PRES   REMARKS
CRAIG          FAIR      33  22  63 CALM      30.32R
HAYDEN         FAIR      39  16  39 VRB5      30.33R
MEEKER         FAIR      40  19  43 E5        30.31R
RABBIT EARS PA FAIR      37   1  22 NW7       30.44R
STEAMBOAT SPGS FAIR      31  19  63 SE3       30.34R
WALDEN         FAIR      39   7  26 NE3       30.35R
$$

COZ006>008-011-181600-
...WEST CENTRAL VALLEYS...

CITY           SKY/WX    TMP DP  RH WIND       PRES   REMARKS
GRAND JUNCTION FAIR      45  16  31 VRB3      30.25R
MONTROSE       FAIR      40  17  39 S7        30.30R
EAGLE          FAIR      30  17  58 CALM      30.40R
RIFLE          FAIR      37  21  52 CALM      30.31R
DELTA          FAIR      43  13  29 E3        30.28R
NUCLA          FAIR      41   5  22 CALM      30.32R
$$

COZ017>023-064>068-181600-
...SOUTHWEST COLORADO...

CITY           SKY/WX    TMP DP  RH WIND       PRES   REMARKS
DURANGO        FAIR      40  18  41 CALM      30.31R
CORTEZ         FAIR      40  20  44 CALM      30.28R
PAGOSA SPRINGS FAIR      43  15  31 CALM      30.35R
TELLURIDE      NOT AVBL
WOLF CREEK PAS FAIR      39  -2  17 NE6       30.58R
$$

COZ009-010-012-014-032>034-037-058>063-181600-
...CENTRAL COLORADO...

CITY           SKY/WX    TMP DP  RH WIND       PRES   REMARKS
ASPEN          FAIR      43  12  28 CALM      30.35R
BUENA VISTA    FAIR      32  16  51 W5        30.36R WCI  28
COPPER MTN     MIX PCPN  34   9  35 NW6       30.53R VSB 1/4 WCI  29
BERTHOUD PASS  FAIR      32  21  64 NW29G37   30.51R WCI  18
COTTONWOOD PAS FAIR      50  -6  10 W8        30.42R
GUNNISON       FAIR      25  11  55 CALM      30.43R
KREMMLING      FAIR      32  23  69 CALM      30.39S
LEADVILLE      FAIR      34   3  27 VRB3      30.42R
MONARCH PASS   FAIR      34   0  23 W13       30.62R WCI  25
SALIDA         NOT AVBL
SUNLIGHT       FAIR      37   5  25 SW6       30.51R
WILKERSON PASS FAIR      41  -8  12 N9        30.52R
$$

COZ069>075-181600-
...SAN LUIS VALLEY/SANGRE DE CRISTO MOUNTAINS...

CITY           SKY/WX    TMP DP  RH WIND       PRES   REMARKS
ALAMOSA        FAIR      37  20  50 CALM      30.36R
DEL NORTE      FAIR      42  14  32 W8        30.38R
LA VETA PASS   FAIR      43  10  26 SW17      30.54R
SAGUACHE       FAIR      39  10  30 NW12      30.38R
$$

COZ035-036-038>040-181600-
...NORTHERN COLORADO FRONT RANGE...

CITY           SKY/WX    TMP DP  RH WIND       PRES   REMARKS
DENVER INTL AP PTSUNNY   57  18  21 SW8       30.15R
DMNS CITY PARK   N/A     55  17  23 SE10      30.17R
AURORA         PTSUNNY   54  20  26 S6        30.18R
FRONT RANGE AP PTSUNNY   57  21  24 SW7       30.16R
ERIE MUNI ARPT FAIR      48  28  46 NE3       30.19R
BOULDER MUN AP FAIR      61  16  17 N3        30.15R
CENTENNIAL     PTSUNNY   55  16  21 E5        30.19R
BROOMFIELD     PTSUNNY   63  10  13 NW7       30.18R
FORT COLLINS   FAIR      56  28  34 VRB3      30.14R
LONGMONT       FAIR      53  30  41 E6        30.17R HAZE
$$

COZ041-046-047-076>085-087-088-181600-
...PIKES PEAK/PALMER DIVIDE AND SOUTHERN FOOTHILLS...

CITY           SKY/WX    TMP DP  RH WIND       PRES   REMARKS
COLO. SPRINGS  PTSUNNY   59  17  19 N12       30.19R
A. F. ACADEMY  FAIR      51  17  25 N6        30.21R
SCHRIEVER AFB  FAIR      61  10  13 NW13      30.19R
CHEYENNE MTN   PTSUNNY   64   8  11 CALM      30.17R HAZE
ELLICOTT       FAIR     N/A N/A N/A N13       30.17R
FALCON         FAIR      57  10  15 NW8       30.24R
FORT CARSON    FAIR      56  24  28 CALM      30.15R
LIMON          FAIR      44  34  67 NW5       30.16R
MONUMENT HILL  FAIR      46  19  34 SW8       30.25R
CANON CITY     SUNNY     59  12  15 W18G25    30.17R
WALSENBURG     FAIR      70  18  13 W15G22    30.18S
TRINIDAD       FAIR      54  22  28 W13       30.18R
$$

COZ042>045-048>051-090-091-181600-
...NORTHEAST COLORADO...

CITY           SKY/WX    TMP DP  RH WIND       PRES   REMARKS
GREELEY ARPT   FAIR      44  36  73 SW6       30.13R
AKRON          FAIR      54  24  31 W13       30.10R
BURLINGTON     FAIR      61  33  35 W8        30.09R
WRAY           FAIR      52  32  46 W9        30.05R
YUMA           NOT AVBL
STERLING       FAIR      45  34  65 S6        30.08R
HOLYOKE        FAIR      55  32  41 W9        30.03R
FORT MORGAN    FAIR      42  30  63 W7        30.11R
$$

COZ086-089-092>099-181600-
...SOUTHEAST COLORADO...

CITY           SKY/WX    TMP DP  RH WIND       PRES   REMARKS
PUEBLO         FAIR      56  26  31 W6        30.12R
LA JUNTA       FAIR      52  28  39 W8        30.10R
LAMAR          FAIR      49  34  56 W10       30.07R HAZE
SPRINGFIELD      N/A     61  32  33 NW8       30.08R
$$




USA.gov is the U.S. government's official web portal to all federal, state and local government web resources and services.